sat.trackr.live / text

‹ back to catalog

STARLINK-34743

NORAD 64937 · 2025-158F

PAYLOAD ACTIVE UNKNOWN

§ Identity

Operator
Country
US
Launch date
2025-07-27
Launch site
AFWTR
Launch vehicle
Mass (kg)
RCS (m²)

Purposes: comms

External: N2YO · Heavens-Above · Gunter

§ Orbital elements

Epoch: 2026-09-20T11:54:29.248704Z

Period
93.91 min
Inclination
97.2855°
Eccentricity
0.0001892
Mean motion
15.33454223 rev/d
Perigee alt
464.2 km
Apogee alt
466.8 km
Semi-major
6,843.7 km
B*
3.5077e-4
RAAN
121.7721°
Arg perigee
83.6170°
Mean anomaly
276.5289°
Rev number
6,470

§ Raw data

STARLINK-347431 64937U 25158F   26263.49617186  .00011270  00000+0  35077-3 0  99962 64937  97.2855 121.7721 0001892  83.6170 276.5289 15.33454223 64701

JSON: /api/v1/satellites/64937 · /tle

For live sub-satellite position, see the globe view (requires WebGL).

§ Visibility from observer

Set your observer location to see the next 7 days of passes ≥ 10°. The values pass through the URL so the page stays shareable.

No JS? Fill the form by hand. The geolocation button needs JavaScript.